Orbital Elements at Epoch 2459200.5 (2020-Dec-17.0) TDB
Reference: JPL 17 (heliocentric ecliptic J2000)
Element | Value | Uncertainty (1-sigma) | Units |
e | .1801696781585332 | 1.1196e-07 | |
a | 2.33830369019191 | 1.427e-08 | au |
q | 1.917012266893123 | 2.6904e-07 | au |
i | 25.04557290984515 | 7.3553e-06 | deg |
node | 8.502488576230721 | 1.1317e-05 | deg |
peri | 156.0124922554438 | 1.9759e-05 | deg |
M | 2.602729481515329 | 1.6375e-05 | deg |
tp | 2459191.057731842706 (2020-Dec-07.55773184) | 5.9359e-05 | TDB |
period | 1306.019915157272 3.58 | 1.1956e-05 3.273e-08 | d yr |
n | .2756466389386171 | 2.5233e-09 | deg/d |
Q | 2.759595113490696 | 1.6841e-08 | au |
|
| | Orbit Determination Parameters
Additional Information
|